Location: Ottawa
(45.4170°N, 75.7000°W)
Time: 18:57:39
(UTC-04:00)

Iridium 91 - Visible Passes

Search period start: 29 May 2016 00:00
Search period end: 08 June 2016 00:00
Orbit: 776 x 779 km, 86.4° (Epoch: 29 May)

Date Brightness Start Highest point End Pass type
(mag) Time Alt. Az. Time Alt. Az. Time Alt. Az.
29 May 5.7 01:50:29 10° N 01:55:41 64° E 01:57:31 39° SSE visible
29 May 7.3 03:32:34 10° NW 03:35:49 17° WNW 03:37:59 13° WSW visible
30 May 6.6 01:17:12 10° NNE 01:22:01 36° E 01:23:59 27° ESE visible
30 May 6.6 02:58:09 10° NNW 03:02:36 29° W 03:04:27 23° WSW visible
31 May 7.4 00:44:15 10° NNE 00:48:13 21° ENE 00:50:27 16° ESE visible
31 May 5.9 02:24:12 10° NNW 02:29:15 51° W 02:30:55 37° SW visible
01 Jun 7.9 00:12:11 10° NE 00:14:17 12° ENE 00:16:21 10° E visible
01 Jun 5.4 01:50:32 10° N 01:55:47 90° ENE 01:57:24 46° S visible
01 Jun 7.6 03:33:49 10° NW 03:35:40 12° WNW 03:37:31 10° W visible
02 Jun 6.0 01:17:05 10° N 01:22:12 51° E 01:23:52 37° SE visible
02 Jun 7.1 02:58:40 10° NNW 03:02:31 21° W 03:04:20 18° WSW visible
03 Jun 6.9 00:43:56 10° NNE 00:48:28 29° ENE 00:50:22 23° ESE visible
03 Jun 6.4 02:24:29 10° NNW 02:29:14 36° W 02:30:50 29° WSW visible
04 Jun 7.5 00:11:12 10° NNE 00:14:37 17° ENE 00:16:52 14° ESE visible
04 Jun 5.6 01:50:40 10° N 01:55:50 65° W 01:57:20 44° SSW visible
05 Jun 5.6 01:17:05 10° N 01:22:19 73° E 01:23:50 46° SSE visible
05 Jun 7.5 02:59:29 10° NW 03:02:22 15° WNW 03:04:18 13° W visible
06 Jun 6.3 00:43:44 10° N 00:48:41 41° E 00:50:20 32° ESE visible
06 Jun 6.8 02:24:54 10° NNW 02:29:10 26° W 02:30:48 22° WSW visible
07 Jun 7.1 00:10:43 10° NNE 00:14:54 24° ENE 00:16:51 19° ESE visible
07 Jun 6.1 01:50:53 10° NNW 01:55:51 45° W 01:57:19 36° SW visible
07 Jun 7.7 23:38:20 10° NE 23:40:59 14° ENE 23:43:22 11° E visible
